Simultaneous Nadir Overpasses (SNOs) Predictions

Prediction of SNOs between GOES-16 and AQUA Satellite Orbit:

Table of predicted SNOs for the next 14.0 days since TLE Epoch: 5/7/2022
Index Date Time (GOES-16) GOES-16 Lat,Lon AQUA Lat,Lon Distance(km) Time Diff (sec)
1 05/07/2022 18:20:53 0.03, -75.20 0.88, -71.21 453.32 80
2 05/08/2022 06:44:44 -0.02, -75.20 0.23, -76.34 130.53 80
3 05/10/2022 06:29:37 -0.02, -75.21 -0.44, -73.32 215.50 80
4 05/10/2022 18:53:37 0.01, -75.22 -0.65, -78.49 371.93 80
5 05/12/2022 18:38:29 0.02, -75.24 -0.01, -75.46 25.05 80
6 05/14/2022 18:26:00 0.02, -75.26 0.60, -72.42 322.53 80
7 05/15/2022 06:49:51 -0.01, -75.27 0.50, -77.55 260.71 80
8 05/17/2022 06:34:43 -0.02, -75.29 -0.19, -74.53 86.90 80
9 05/19/2022 06:22:14 -0.02, -75.31 -0.84, -71.49 434.79 80
10 05/19/2022 18:43:33 0.01, -75.32 -0.28, -76.66 152.29 80
